Regional Weather Roundup
Issued by NWS Charleston, SC

Current Version | Previous Version | Graphics & Text | Print | Product List | Glossary Off
Versions: 1 2 3 4 5 6 7 8 9 10 11 12 13 14 15 16 17 18 19 20 21 22 23 24 25 26 27 28 29 30 31 32 33 34 35 36 37 38 39 40 41 42 43 44 45 46 47 48 49 50

000
ASUS42 KCHS 210227
RWRCHS

REGIONAL WEATHER ROUNDUP
NATIONAL WEATHER SERVICE CHARLESTON SC
1000 PM EDT THU JUL 20 2017

NOTE: "FAIR" INDICATES FEW OR NO CLOUDS BELOW 12,000 FEET WITH NO
SIGNIFICANT WEATHER AND/OR OBSTRUCTIONS TO VISIBILITY.

NOT ALL STATIONS ARE QUALITY CONTROLLED. USE DATA WITH CAUTION...
ESPECIALLY DEWPOINT OBSERVATIONS.

SCZ027-030-031-034>040-042>050-210300-
...SOUTHEAST SOUTH CAROLINA...

CITY           SKY/WX    TMP DP  RH WIND       PRES   REMARKS
N CHARLESTON   PTCLDY    78  72  81 S6        30.03R
WATERFRONT PRK   N/A     82  78  88 SW5       30.01R HX  91
JOHNS ISLAND   FAIR      81  77  89 SW3       30.04R
PINOPOLIS        N/A     81  75  83 VRB2      29.95S
MONCKS CORNER  FAIR      75  72  88 CALM      30.04R
SUMMERVILLE    FAIR      75  72  88 CALM      30.05R
BEAUFORT MCAS  PTCLDY    81  77  88 S3        30.03R
BEAUFORT ARPT  FAIR      81  73  78 S5        30.03R
HILTON HEAD IS CLEAR     82  75  78 S3G12     30.05R
WALTERBORO     CLEAR     73  72  94 CALM      30.04S
ALLENDALE        N/A    N/A N/A N/A MISG        N/A

...SOUTHERN MIDLANDS AND PEE DEE...

CITY           SKY/WX    TMP DP  RH WIND       PRES   REMARKS
GEORGETOWN     FAIR      77  77 100 SW3       30.04S
KINGSTREE      FAIR      77  72  83 CALM      30.03R
ORANGEBURG     CLEAR     76  72  87 S6        30.03R
BARNWELL       FAIR      77  75  94 CALM      30.04R
AIKEN          FAIR      77  70  78 S7        30.07S
MANNING        FAIR      81  72  74 NW15      30.02S
COLUMBIA       PTCLDY    80  70  71 S5        30.01R
SUMTER         PTCLDY    79  74  83 SW6       29.99R
FLORENCE       CLEAR     82  76  81 S9        30.02R
MYRTLE BEACH   PTCLDY    81  75  82 SW5       30.04R
N MYRTLE BEACH CLEAR     81  76  84 SW12      30.02R

$$

GAZ063-065-086>088-099>101-113>116-118-119-134>141-150-210300-
...SOUTHEAST GEORGIA...

CITY           SKY/WX    TMP DP  RH WIND       PRES   REMARKS
SAVANNAH ARPT  CLOUDY    77  71  82 CALM      30.05R
HUNTER AAF     MOCLDY    77  70  78 SW3       30.02R
FORT STEWART   PTCLDY    74  70  87 E3        30.02S
STATESBORO     CLOUDY    75  75  98 CALM      30.05R
SYLVANIA       MOCLDY    76  74  94 CALM      30.06R
CLAXTON        FAIR      75  73  96 CALM      30.05R

...CSRA...CENTRAL AND FAR SOUTHEAST GEORGIA...

CITY           SKY/WX    TMP DP  RH WIND       PRES   REMARKS
THOMSON        PTCLDY    81  71  71 SW6       30.08R
AUGUSTA-BUSH   MOCLDY    77  74  90 S6        30.02F
AUGUSTA-DANIEL MOCLDY    79  70  74 S6        30.04R
SWAINSBORO     FAIR      73  73 100 SW3       30.05S
VIDALIA        CLOUDY    77  72  83 NE6       30.06R
EASTMAN        FAIR      82  62  52 S6        30.06S
HAZLEHURST     FAIR      79  75  88 S6        30.04R
ALMA           CLEAR     74  70  87 CALM      30.04S
WAYCROSS       CLOUDY    74  74 100 CALM      30.04R
JESUP          NOT AVBL
BAXLEY         FAIR      75  75 100 CALM      30.04R
BRUNSWICK      CLEAR     79  73  83 SE5       30.05R
SAINT SIMONS   CLEAR     81  73  76 CALM      30.03F

$$

SCZ027-028-034-036>038-045-046-048>050-GAZ119-141-210300-
...LAKE AND SUPPLEMENTAL COASTAL OBSERVATIONS...

STATION/POSITION TIME  TEMP    WIND        PRES    WAVE   SWELL
                       AIR SEA DIR/SP/G            HT/PER HT/PER/DIR
                 (UTC) (F)     (DEG/KT/KT) (MB)    (FT/S) (FT/S/D)
WINYAH BAY       0145   81     220/  7     1017.0R
LAKE MURRAY      0220   83     200/  9/ 11 1015.6
ACE BASIN NERRS  0145   78        CALM     1017.0R
FORT PULASKI     0200   81 86  230/  7/ 12 1017.4
SAPELO ISLAND    0200   79        CALM     1017.0

$$

ANZ835-935-AMZ111-154-330-350-352-354-370-450-454-472-210300-
...C-MAN AND BUOY OBSERVATIONS...

STATION/POSITION TIME  TEMP    WIND        PRES    WAVE   SWELL
                       AIR SEA DIR/SP/G            HT/PER HT/PER/DIR
                 (UTC) (F)     (DEG/KT/KT) (MB)    (FT/S) (FT/S/D)
BUOY 41004       0210   83 84  200/ 10/ 12 1016.9
BUOY 41008       0150   82 82  200/  8/ 10 1017.2R   2/ 9   2/100/ 9
FOLLY BEACH CMAN 0200   83     210/ 12/ 14 1017.6R
CAPERS NEARSHORE 0208   81 83  230/ 14/ 17 1016.8R
FRIPP NEARSHORE  0208   83 84  210/ 12/ 16 1016.7R


STATION/POSITION TIME  TEMP    WIND        PRES    WAVE   SWELL
                       AIR SEA DIR/SP/G            HT/PER HT/PER/DIR
                 (UTC) (F)     (DEG/KT/KT) (MB)    (FT/S) (FT/S/D)
5E ST. MARYS GA  0200      83                N/A     2/ 9
FRYING PAN BUOY  0210   83 84  210/ 14/ 16 1017.0
BUOY 41025       0150   83 85  210/ 10/ 14 1016.5R   2/ 6   2/130/ 6
CAPE LOOKOUT NC  0200   80     210/  6/  7 1016.6R
BUOY 41002       0150   81 84  190/ 10/ 12 1018.8R   3/ 8   3/ 90/ 8
BUOY 41010       0210   83 85  160/ 12/ 14 1018.5
ST AUGUSTINE FL  0200   81 83  230/  6/  9 1017.7F


$$



USA.gov is the U.S. government's official web portal to all federal, state and local government web resources and services.